Regional Weather Roundup
Issued by NWS Charleston, WV

Home | Current Version | Previous Version | Text Only | Print | Product List | Glossary Off
Versions: 1 2 3 4 5 6 7 8 9 10 11 12 13 14 15 16 17 18 19 20 21 22 23 24 25 26 27 28 29 30 31 32 33 34 35 36 37 38 39 40 41 42 43 44 45 46 47 48 49 50

000
ASUS41 KRLX 010310
RWRRLX
West Virginia Regional Weather Roundup
National Weather Service Charleston WV
1100 PM EDT FRI JUL 31 2015

Note: "fair" indicates few or no clouds below 12,000 feet with no
significant weather and/or obstructions to visibility.

WVZ003-010400-
Northern Panhandle of West Virginia

CITY           SKY/WX    TMP DP  RH WIND       PRES   REMARKS
WHEELING       CLOUDY    74  58  57 SW6       29.93R
$$

WVZ009-010400-
Northwest West Virginia

CITY           SKY/WX    TMP DP  RH WIND       PRES   REMARKS
PARKERSBURG    CLOUDY    74  63  68 SW5       29.97S
$$

WVZ006-010400-
Western West Virginia

CITY           SKY/WX    TMP DP  RH WIND       PRES   REMARKS
HUNTINGTON     CLEAR     70  65  84 SW3       29.98S
$$

WVZ015-010400-
West Central West Virginia

CITY           SKY/WX    TMP DP  RH WIND       PRES   REMARKS
CHARLESTON     CLEAR     71  64  78 CALM      29.98S
$$

WVZ022-031-010400-
North Central West Virginia

CITY           SKY/WX    TMP DP  RH WIND       PRES   REMARKS
CLARKSBURG     CLEAR     71  59  65 S6        29.96S
MORGANTOWN     PTCLDY    74  57  55 S5        29.97R
$$

WVZ025-035-042-045-010400-
Southern West Virginia

CITY           SKY/WX    TMP DP  RH WIND       PRES   REMARKS
BECKLEY        CLEAR     65  57  75 S6        30.09R
LOGAN            N/A     70  63  78 CALM      30.00S
BLUEFIELD      CLEAR     68  56  65 SW5       30.12R
LEWISBURG      CLEAR     65  58  77 CALM      30.07S
$$

WVZ047-010400-
Northern Mountains of West Virginia

CITY           SKY/WX    TMP DP  RH WIND       PRES   REMARKS
ELKINS         CLEAR     62  59  90 CALM      30.03S
$$

WVZ052-010400-
Eastern Panhandle of West Virginia

CITY           SKY/WX    TMP DP  RH WIND       PRES   REMARKS
MARTINSBURG    CLEAR     71  59  65 SE6       29.91R
PETERSBURG     CLEAR    N/A N/A N/A CALM      29.97S
$$



USA.gov is the U.S. government's official web portal to all federal, state and local government web resources and services.